sat.trackr.live / text

‹ back to catalog

SHIYAN-33

NORAD 68405 · 2026-064A

PAYLOAD ACTIVE UNKNOWN

§ Identity

Operator
Country
PRC
Launch date
2026-03-27
Launch site
JSC
Launch vehicle
Mass (kg)
RCS (m²)

External: N2YO · Heavens-Above · Gunter

§ Orbital elements

Epoch: 2026-05-24T22:32:26.949120Z

Period
94.51 min
Inclination
97.4625°
Eccentricity
0.0014694
Mean motion
15.23674431 rev/d
Perigee alt
484.7 km
Apogee alt
504.9 km
Semi-major
6,872.9 km
B*
1.8500e-4
RAAN
220.5768°
Arg perigee
35.2311°
Mean anomaly
324.9895°
Rev number
895

§ Raw data

SHIYAN-331 68405U 26064A   26144.93920080  .00004378  00000+0  18500-3 0  99972 68405  97.4625 220.5768 0014694  35.2311 324.9895 15.23674431  8955

JSON: /api/v1/satellites/68405 · /tle

For live sub-satellite position, see the globe view (requires WebGL).

§ Visibility from observer

Set your observer location to see the next 7 days of passes ≥ 10°. The values pass through the URL so the page stays shareable.

No JS? Fill the form by hand. The geolocation button needs JavaScript.